Location: Bright Sky Observatory
(40.7821°N, 74.2425°W)
Time: 13:46:15
(UTC-05:00)

Amateur Radio Satellites - All Passes

Search period start: 03 March 2015 13:16
Search period end: 04 March 2015 13:16
Location: Bright Sky Observatory, 40.7821°N, 74.2425°W

Satellite Date Start Highest point End Downlink Frequencies (MHz)
Time Altitude Azimuth
HORYU 2 03 Mar 13:35:12 13:38:14 19° 66° (ENE) 13:41:24 437.375
SWISSCUBE 03 Mar 14:01:42 14:06:26 55° 287° (WNW) 14:11:06 437.505
ISS 03 Mar 14:01:50 14:04:44 30° 26° (NNE) 14:07:40 145.825
KKS-1 03 Mar 14:09:04 14:13:01 31° 96° (E) 14:17:00 437.445
BEESAT 03 Mar 14:10:15 14:14:53 49° 288° (WNW) 14:19:30 436.000
STARS 03 Mar 14:13:59 14:17:26 23° 94° (E) 14:20:57 437.465
YUBILEINY 03 Mar 14:18:54 14:24:07 19° 80° (E) 14:29:51 435.215
Gurwin Techsat 1B 03 Mar 14:21:17 14:26:17 41° 262° (W) 14:31:18 435.225
AO-7 03 Mar 14:25:13 14:33:10 52° 65° (ENE) 14:41:10 29.400- 29.500
ITUPSAT 1 03 Mar 14:38:35 14:42:41 27° 292° (WNW) 14:46:40 437.325
ITAMSAT 1 03 Mar 14:46:07 14:49:46 18° 269° (W) 14:53:14 435.822/435.867
HORYU 2 03 Mar 15:10:27 15:14:39 41° 262° (W) 15:18:51 437.375
JAS-2 03 Mar 15:14:40 15:20:01 56° 71° (ENE) 15:26:03 435.910
MOZHAYETS 4 03 Mar 15:28:24 15:29:39 11° 87° (E) 15:31:13
ISS 03 Mar 15:38:12 15:41:11 34° 223° (SW) 15:44:10 145.825
KKS-1 03 Mar 15:45:58 15:49:34 24° 292° (WNW) 15:53:02 437.445
STARS 03 Mar 15:50:04 15:53:58 31° 290° (WNW) 15:57:48 437.465
BEESAT 3 03 Mar 16:00:18 16:03:22 21° 113° (ESE) 16:06:34 437.485
YUBILEINY 03 Mar 16:11:10 16:19:55 87° 276° (W) 16:28:47 435.215
M-CUBED/EXP-1 PRIME 03 Mar 16:13:53 16:17:58 41° 104° (ESE) 16:22:20 437.505
AUBIESAT-1 03 Mar 16:15:09 16:19:10 38° 103° (ESE) 16:23:29 437.475
AO-7 03 Mar 16:18:41 16:26:15 36° 264° (W) 16:33:40 29.400- 29.500
BEESAT 2 03 Mar 16:26:06 16:29:49 34° 116° (ESE) 16:33:37 435.950
AIST 2 03 Mar 16:30:08 16:32:24 15° 110° (ESE) 16:34:51 435.215
Cubesat XI-IV 03 Mar 16:38:43 16:43:27 34° 68° (ENE) 16:48:17 437.490
CUTE-I 03 Mar 16:47:12 16:52:08 39° 69° (ENE) 16:57:08 437.470
VERMONT LUNAR 03 Mar 16:51:20 16:54:28 31° 156° (SSE) 16:57:37 437.305
JAS-2 03 Mar 17:01:47 17:05:48 19° 273° (W) 17:09:53 435.910
PHONESAT 2.4 03 Mar 17:02:04 17:04:53 21° 151° (SSE) 17:07:44 2401.200-2431.200
MOZHAYETS 4 03 Mar 17:02:51 17:07:29 70° 285° (WNW) 17:12:06
CUBESAT XI-V 03 Mar 17:28:33 17:31:29 17° 90° (E) 17:34:36 437.345
BEESAT 3 03 Mar 17:37:27 17:41:16 36° 309° (NW) 17:45:07 437.485
AIST 1 03 Mar 17:40:57 17:45:14 48° 78° (ENE) 17:49:30
O/OREOS (USA 219) 03 Mar 17:45:12 17:48:34 20° 55° (NE) 17:52:00 437.305
PRISM 03 Mar 17:48:30 17:51:59 25° 95° (E) 17:55:31 437.425
M-CUBED/EXP-1 PRIME 03 Mar 17:49:30 17:52:42 20° 296° (WNW) 17:55:57 437.505
AUBIESAT-1 03 Mar 17:50:32 17:53:52 22° 296° (WNW) 17:57:17 437.475
STRAND 1 03 Mar 17:56:38 18:00:18 20° 92° (E) 18:04:08 437.568
BEESAT 2 03 Mar 18:04:38 18:08:05 24° 313° (NW) 18:11:30 435.950
AIST 2 03 Mar 18:06:25 18:10:36 55° 306° (NW) 18:14:50 435.215
YUBILEINY 03 Mar 18:12:30 18:18:20 18° 301° (WNW) 18:23:45 435.215
Cubesat XI-IV 03 Mar 18:18:48 18:23:34 31° 265° (W) 18:28:18 437.490
CUTE-I 03 Mar 18:27:50 18:32:21 27° 266° (W) 18:36:48 437.470
VERMONT LUNAR 03 Mar 18:28:40 18:32:10 79° 172° (S) 18:35:40 437.305
HO-68 03 Mar 18:33:11 18:38:45 26° 60° (ENE) 18:44:32 435.675
BRITE-PL 03 Mar 18:35:40 18:39:59 24° 68° (ENE) 18:44:17 437.365/2234.400
GOMX 1 03 Mar 18:36:47 18:39:50 16° 65° (ENE) 18:43:00 467.674
PHONESAT 2.4 03 Mar 18:39:24 18:43:01 65° 167° (SSE) 18:46:38 2401.200-2431.200
PCSat 03 Mar 18:43:37 18:44:43 11° 103° (ESE) 18:46:12 145.827
CUBESAT XI-V 03 Mar 19:04:43 19:09:17 49° 287° (WNW) 19:13:47 437.345
DOVE 4 03 Mar 19:06:10 19:09:47 20° 68° (ENE) 19:13:25 437.250
AAUSAT CUBESAT 2 03 Mar 19:08:41 19:10:39 14° 66° (ENE) 19:12:50 437.432
CINEMA 3 03 Mar 19:09:29 19:10:25 11° 64° (ENE) 19:11:37 145.822/145.860
COMPASS 1 03 Mar 19:11:24 19:14:01 17° 67° (ENE) 19:16:45 437.405
AIST 1 03 Mar 19:20:08 19:22:31 14° 274° (W) 19:24:42
PRISM 03 Mar 19:23:51 19:27:28 27° 291° (WNW) 19:31:01 437.425
O/OREOS (USA 219) 03 Mar 19:23:52 19:28:15 43° 253° (WSW) 19:32:33 437.305
STRAND 1 03 Mar 19:34:52 19:39:49 48° 289° (WNW) 19:44:43 437.568
SEEDS 03 Mar 19:38:53 19:42:46 40° 73° (ENE) 19:46:43 437.485
CANX-2 03 Mar 19:43:32 19:47:41 61° 75° (ENE) 19:51:52 2200.000
FUNcube-1 03 Mar 19:56:16 19:57:33 11° 65° (ENE) 19:59:02 145.935
ZACube-1 03 Mar 19:57:35 19:59:11 12° 65° (ENE) 20:00:57 437.345
CUTE 1.7 + AOD 2 03 Mar 20:01:55 20:06:08 90° 91° (E) 20:10:22 437.475
UKube-1 03 Mar 20:02:51 20:04:54 14° 64° (ENE) 20:07:08 .
VERMONT LUNAR 03 Mar 20:06:34 20:10:04 77° 190° (S) 20:13:33 437.305
DELFI C3 03 Mar 20:08:48 20:11:57 23° 69° (ENE) 20:15:11 145.870
GOMX 1 03 Mar 20:12:10 20:17:33 68° 260° (W) 20:22:40 467.674
BRITE-PL 03 Mar 20:12:45 20:18:14 49° 262° (W) 20:23:29 437.365/2234.400
UWE-3 03 Mar 20:17:06 20:20:36 24° 69° (ENE) 20:24:07 435.000/436.395/437.385
PHONESAT 2.4 03 Mar 20:17:47 20:21:27 86° 189° (S) 20:25:06 2401.200-2431.200
HO-68 03 Mar 20:18:58 20:26:02 63° 258° (WSW) 20:33:09 435.675
PCSat 03 Mar 20:22:02 20:27:27 87° 113° (ESE) 20:32:55 145.827
GONETS M04 03 Mar 20:25:57 20:32:44 28° 84° (E) 20:39:50
AAUSAT CUBESAT 2 03 Mar 20:41:54 20:45:56 51° 261° (W) 20:49:59 437.432
Oscar 11 03 Mar 20:42:02 20:46:18 73° 76° (ENE) 20:50:37 145.826/435.025
DOVE 4 03 Mar 20:42:19 20:47:18 48° 262° (W) 20:52:02 437.250
CINEMA 3 03 Mar 20:42:20 20:47:08 84° 258° (WSW) 20:51:44 145.822/145.860
COMPASS 1 03 Mar 20:45:32 20:49:27 40° 263° (W) 20:53:23 437.405
CUBEBUG 2 03 Mar 20:55:50 21:00:21 77° 76° (ENE) 21:04:43 437.445
DX 1 03 Mar 21:08:06 21:12:28 70° 75° (ENE) 21:16:51 434.975-435.025
RS-15 03 Mar 21:10:47 21:17:43 21° 102° (ESE) 21:25:20 29.354- 29.394
50 SAT 03 Mar 21:11:16 21:14:34 26° 70° (ENE) 21:17:55 437.505
SEEDS 03 Mar 21:16:08 21:18:51 16° 269° (W) 21:21:24 437.485
AISAT 03 Mar 21:16:53 21:20:57 35° 71° (ENE) 21:25:05 437.250
CUBEBUG 1 03 Mar 21:18:06 21:20:43 16° 65° (ENE) 21:23:30 437.445
CANX-2 03 Mar 21:22:55 21:24:08 11° 272° (W) 21:25:05 2200.000
HUMSAT D 03 Mar 21:25:13 21:29:20 56° 74° (ENE) 21:33:24 437.325/437.525
VELOX 1 03 Mar 21:25:41 21:29:54 42° 72° (ENE) 21:34:10 145.980
FUNcube-1 03 Mar 21:29:05 21:33:27 68° 259° (WSW) 21:37:43 145.935
ZACube-1 03 Mar 21:30:46 21:35:08 64° 259° (W) 21:39:24 437.345
UKube-1 03 Mar 21:36:20 21:40:37 59° 259° (W) 21:44:56 .
DELFI C3 03 Mar 21:43:37 21:47:04 27° 265° (W) 21:50:30 145.870
VERMONT LUNAR 03 Mar 21:44:41 21:47:45 28° 205° (SSW) 21:50:46 437.305
ESTCUBE 1 03 Mar 21:45:45 21:49:47 33° 70° (ENE) 21:53:54 437.505/2401.250
UWE-3 03 Mar 21:53:07 21:57:04 30° 264° (W) 22:00:53 435.000/436.395/437.385
PHONESAT 2.4 03 Mar 21:56:18 21:59:47 43° 200° (SSW) 22:03:14 2401.200-2431.200
UNISAT 6 03 Mar 21:56:31 22:00:08 26° 95° (E) 22:03:49 437.425
QB50P1 03 Mar 22:03:02 22:05:41 17° 91° (E) 22:08:28 145.935-145.965
QB50P2 03 Mar 22:07:03 22:10:01 19° 92° (E) 22:13:04 145.880/145.840
BUGSAT 1 03 Mar 22:08:00 22:09:55 13° 90° (E) 22:12:01 437.445
PCSat 03 Mar 22:08:09 22:11:40 17° 319° (NW) 22:15:03 145.827
DANDE 03 Mar 22:17:04 22:19:08 12° 91° (E) 22:21:26 436.750
GONETS M04 03 Mar 22:20:28 22:29:03 62° 282° (WNW) 22:37:39
TIGRISAT 03 Mar 22:20:39 22:24:48 47° 99° (E) 22:29:00 435.000
DUCHIFAT 1 03 Mar 22:20:42 22:24:11 25° 95° (E) 22:27:44 145.980
ANTELSAT 03 Mar 22:34:48 22:39:06 72° 101° (E) 22:43:28 437.575/2403.000
CUSAT 1 03 Mar 22:37:35 22:42:04 22° 95° (E) 22:45:55 437.405
POPSAT HIP 1 03 Mar 22:41:50 22:45:53 45° 99° (E) 22:49:56 437.405
POLYITAN 1 03 Mar 22:41:55 22:45:59 46° 99° (E) 22:50:03 437.675
50 SAT 03 Mar 22:46:20 22:49:34 23° 266° (W) 22:52:42 437.505
DX 1 03 Mar 22:48:36 22:49:18 10° 272° (W) 22:49:41 434.975-435.025
CUBEBUG 1 03 Mar 22:52:24 22:56:44 51° 261° (W) 23:01:05 437.445
AISAT 03 Mar 22:54:11 22:57:42 21° 267° (W) 23:01:07 437.250
VELOX 1 03 Mar 23:03:37 23:06:43 18° 268° (W) 23:09:43 145.980
HUMSAT D 03 Mar 23:03:54 23:05:31 12° 271° (W) 23:06:55 437.325/437.525
NANOSAT C BR1 03 Mar 23:04:25 23:08:40 84° 101° (ESE) 23:12:53 145.865
RS-15 03 Mar 23:17:48 23:28:43 89° 118° (ESE) 23:39:50 29.354- 29.394
TISAT 1 03 Mar 23:19:20 23:23:36 72° 76° (ENE) 23:27:53 437.305
SPROUT 03 Mar 23:19:43 23:24:03 79° 77° (ENE) 23:28:25 437.525
ESTCUBE 1 03 Mar 23:23:07 23:26:46 23° 267° (W) 23:30:19 437.505/2401.250
SWISSCUBE 03 Mar 23:31:59 23:35:11 19° 65° (ENE) 23:38:33 437.505
UNISAT 6 03 Mar 23:33:16 23:36:54 26° 290° (WNW) 23:40:30 437.425
PHONESAT 2.4 03 Mar 23:36:23 23:37:43 12° 214° (SW) 23:38:56 2401.200-2431.200
QB50P1 03 Mar 23:37:50 23:41:49 40° 288° (WNW) 23:45:44 145.935-145.965
BEESAT 03 Mar 23:40:07 23:43:33 21° 66° (ENE) 23:47:07 436.000
BUGSAT 1 03 Mar 23:41:45 23:45:47 48° 287° (WNW) 23:49:43 437.445
QB50P2 03 Mar 23:42:12 23:46:05 35° 289° (WNW) 23:49:54 145.880/145.840
SO-50 03 Mar 23:46:33 23:47:21 11° 108° (ESE) 23:48:28 436.795
DANDE 03 Mar 23:55:33 00:02:26 88° 274° (W) 00:07:33 436.750
DUCHIFAT 1 03 Mar 23:56:28 00:00:01 26° 291° (WNW) 00:03:28 145.980
TIGRISAT 03 Mar 23:58:38 00:01:14 16° 294° (WNW) 00:03:43 435.000
ITUPSAT 1 04 Mar 00:07:13 00:11:34 36° 70° (ENE) 00:15:59 437.325
ANTELSAT 04 Mar 00:14:12 00:15:26 11° 296° (WNW) 00:16:26 437.575/2403.000
POPSAT HIP 1 04 Mar 00:18:51 00:21:28 16° 294° (WNW) 00:23:56 437.405
POLYITAN 1 04 Mar 00:19:01 00:21:36 15° 294° (WNW) 00:24:01 437.675
CUSAT 1 04 Mar 00:19:02 00:24:55 43° 282° (WNW) 00:29:22 437.405
BEESAT 3 04 Mar 00:19:38 00:22:09 16° 42° (NE) 00:24:46 437.485
GONETS M04 04 Mar 00:25:20 00:28:16 11° 307° (NW) 00:30:31
BEESAT 2 04 Mar 00:46:05 00:49:25 23° 46° (NE) 00:52:45 435.950
AIST 2 04 Mar 00:51:35 00:53:29 13° 38° (NE) 00:55:29 435.215
KKS-1 04 Mar 01:07:13 01:11:03 29° 69° (ENE) 01:14:57 437.445
SWISSCUBE 04 Mar 01:08:05 01:12:43 49° 261° (W) 01:17:23 437.505
STARS 04 Mar 01:11:11 01:14:27 21° 67° (ENE) 01:17:50 437.465
BEESAT 04 Mar 01:16:35 01:21:08 43° 261° (W) 01:25:42 436.000
Oscar 19 04 Mar 01:16:38 01:21:41 56° 100° (E) 01:26:44 437.125/150
ITAMSAT 1 04 Mar 01:18:52 01:22:30 19° 91° (E) 01:26:18 435.822/435.867
SO-50 04 Mar 01:22:39 01:27:15 83° 303° (WNW) 01:32:02 436.795
RS-15 04 Mar 01:33:13 01:42:45 32° 328° (NNW) 01:52:20 29.354- 29.394
DANDE 04 Mar 01:43:58 01:46:04 11° 292° (WNW) 01:47:38 436.750
ITUPSAT 1 04 Mar 01:45:44 01:49:36 23° 267° (W) 01:53:23 437.325
BEESAT 3 04 Mar 01:56:36 02:00:41 62° 241° (WSW) 02:04:42 437.485
YUBILEINY 04 Mar 02:21:51 02:30:17 47° 74° (ENE) 02:38:45 435.215
BEESAT 2 04 Mar 02:23:52 02:27:43 37° 244° (WSW) 02:31:29 435.950
AIST 2 04 Mar 02:28:29 02:32:47 89° 57° (ENE) 02:36:59 435.215
AO-7 04 Mar 02:29:26 02:33:19 14° 86° (E) 02:37:48 29.400- 29.500
MOZHAYETS 4 04 Mar 02:31:01 02:32:17 11° 63° (ENE) 02:33:49
Gurwin Techsat 1B 04 Mar 02:37:18 02:42:38 81° 101° (ESE) 02:47:58 435.225
KKS-1 04 Mar 02:43:54 02:47:42 26° 265° (W) 02:51:25 437.445
STARS 04 Mar 02:46:38 02:50:44 36° 262° (W) 02:54:50 437.465
Oscar 19 04 Mar 02:57:08 03:00:39 18° 296° (WNW) 03:04:00 437.125/150
ITAMSAT 1 04 Mar 02:57:18 03:02:21 50° 289° (WNW) 03:07:22 435.822/435.867
HORYU 2 04 Mar 03:01:56 03:06:04 37° 98° (E) 03:10:12 437.375
M-CUBED/EXP-1 PRIME 04 Mar 03:03:41 03:06:51 44° 68° (ENE) 03:10:10 437.505
AUBIESAT-1 04 Mar 03:04:29 03:07:36 39° 68° (ENE) 03:10:53 437.475
SO-50 04 Mar 03:06:03 03:08:39 14° 324° (NW) 03:11:09 436.795
PCSat 04 Mar 03:28:52 03:31:04 13° 37° (NE) 03:33:29 145.827
RS-15 04 Mar 03:52:25 04:00:01 20° 2° (N) 04:07:51 29.354- 29.394
MOZHAYETS 4 04 Mar 04:04:24 04:08:57 78° 257° (WSW) 04:13:34
JAS-2 04 Mar 04:07:17 04:14:42 59° 100° (E) 04:22:27 435.910
YUBILEINY 04 Mar 04:19:01 04:26:59 38° 273° (W) 04:34:46 435.215
AO-7 04 Mar 04:19:14 04:27:35 80° 106° (ESE) 04:35:53 29.400- 29.500
Gurwin Techsat 1B 04 Mar 04:19:16 04:22:01 14° 299° (WNW) 04:24:30 435.225
CUBESAT XI-V 04 Mar 04:32:13 04:35:09 17° 65° (ENE) 04:38:15 437.345
HORYU 2 04 Mar 04:39:09 04:42:31 21° 293° (WNW) 04:45:47 437.375
PRISM 04 Mar 04:39:24 04:42:16 19° 67° (ENE) 04:45:16 437.425
AUBIESAT-1 04 Mar 04:42:16 04:42:52 10° 266° (W) 04:43:18 437.475
Cubesat XI-IV 04 Mar 04:57:55 05:00:08 13° 87° (E) 05:02:40 437.490
CUTE-I 04 Mar 05:05:49 05:08:49 15° 89° (E) 05:12:03 437.470
PCSat 04 Mar 05:10:15 05:15:39 66° 58° (ENE) 05:21:03 145.827
STRAND 1 04 Mar 05:12:07 05:16:28 29° 68° (ENE) 05:20:55 437.568
JAS-2 04 Mar 05:52:58 05:59:23 31° 295° (WNW) 06:05:54 435.910
RS-15 04 Mar 06:07:00 06:17:04 36° 36° (NE) 06:27:43 29.354- 29.394
CUBESAT XI-V 04 Mar 06:07:39 06:12:13 52° 261° (W) 06:16:51 437.345
AIST 1 04 Mar 06:10:32 06:14:15 29° 91° (E) 06:18:05
AO-7 04 Mar 06:13:14 06:19:38 25° 305° (NW) 06:25:45 29.400- 29.500
PRISM 04 Mar 06:13:42 06:17:32 36° 262° (W) 06:21:25 437.425
Cubesat XI-IV 04 Mar 06:35:34 06:40:57 77° 286° (WNW) 06:46:18 437.490
GONETS M04 04 Mar 06:37:05 06:40:26 13° 55° (NE) 06:44:27
CUTE-I 04 Mar 06:44:07 06:49:28 66° 287° (WNW) 06:54:45 437.470
STRAND 1 04 Mar 06:50:56 06:55:36 34° 264° (W) 07:00:15 437.568
PCSat 04 Mar 06:55:06 06:58:36 17° 254° (WSW) 07:01:50 145.827
CANX-2 04 Mar 07:31:49 07:32:43 11° 88° (E) 07:33:54 2200.000
HO-68 04 Mar 07:47:33 07:53:16 26° 93° (E) 07:59:11 435.675
AIST 1 04 Mar 07:48:26 07:51:58 23° 288° (WNW) 07:55:26
CUTE 1.7 + AOD 2 04 Mar 07:48:45 07:51:17 16° 91° (E) 07:54:00 437.475
O/OREOS (USA 219) 04 Mar 07:57:25 08:00:51 22° 103° (ESE) 08:04:25 437.305
SO-50 04 Mar 08:15:13 08:17:57 15° 37° (NE) 08:20:50 436.795
GOMX 1 04 Mar 08:15:22 08:19:16 33° 95° (E) 08:23:04 467.674
ISS 04 Mar 08:16:49 08:20:02 78° 143° (SE) 08:23:16 145.825
BRITE-PL 04 Mar 08:18:41 08:23:08 57° 100° (E) 08:27:19 437.365/2234.400
Cubesat XI-IV 04 Mar 08:18:57 08:20:16 11° 302° (WNW) 08:21:16 437.490
RS-15 04 Mar 08:19:21 08:30:51 81° 240° (WSW) 08:42:49 29.354- 29.394
AAUSAT CUBESAT 2 04 Mar 08:25:46 08:29:11 24° 94° (E) 08:32:41 437.432
COMPASS 1 04 Mar 08:29:27 08:33:11 31° 96° (E) 08:36:58 437.405
GONETS M04 04 Mar 08:30:44 08:39:28 67° 79° (E) 08:48:13
Oscar 11 04 Mar 08:31:21 08:33:25 14° 89° (E) 08:35:41 145.826/435.025
CINEMA 3 04 Mar 08:38:35 08:41:42 21° 93° (E) 08:44:53 145.822/145.860
DOVE 4 04 Mar 08:42:13 08:46:17 44° 98° (E) 08:50:15 437.250
CUBEBUG 2 04 Mar 08:48:46 08:51:03 15° 90° (E) 08:53:30 437.445
UNISAT 6 04 Mar 08:55:49 08:59:17 24° 69° (ENE) 09:02:48 437.425
QB50P1 04 Mar 08:56:41 08:58:45 14° 65° (ENE) 09:00:59 145.935-145.965
DX 1 04 Mar 08:58:56 09:00:33 12° 89° (E) 09:02:25 434.975-435.025
SEEDS 04 Mar 08:58:57 09:03:13 84° 103° (ESE) 09:07:27 437.485
BUGSAT 1 04 Mar 08:59:31 09:00:24 11° 63° (ENE) 09:01:31 437.445
QB50P2 04 Mar 09:00:43 09:03:09 15° 66° (ENE) 09:05:45 145.880/145.840
CANX-2 04 Mar 09:04:57 09:09:10 63° 285° (WNW) 09:13:23 2200.000
DUCHIFAT 1 04 Mar 09:13:34 09:16:40 20° 68° (ENE) 09:19:51 145.980
FUNcube-1 04 Mar 09:18:34 09:21:43 21° 93° (E) 09:24:59 145.935
TIGRISAT 04 Mar 09:19:21 09:23:28 41° 72° (ENE) 09:27:32 435.000
ZACube-1 04 Mar 09:20:21 09:23:38 23° 94° (E) 09:27:00 437.345
DELFI C3 04 Mar 09:23:13 09:27:04 40° 98° (E) 09:30:56 145.870
CUTE 1.7 + AOD 2 04 Mar 09:23:27 09:27:29 43° 287° (WNW) 09:31:31 437.475
UKube-1 04 Mar 09:24:53 09:28:18 23° 94° (E) 09:31:47 .
ANTELSAT 04 Mar 09:33:39 09:37:59 62° 75° (ENE) 09:42:17 437.575/2403.000
HO-68 04 Mar 09:34:25 09:41:29 59° 291° (WNW) 09:48:29 435.675
POPSAT HIP 1 04 Mar 09:34:34 09:38:26 34° 71° (ENE) 09:42:20 437.405
POLYITAN 1 04 Mar 09:34:55 09:38:48 35° 71° (ENE) 09:42:43 437.675
O/OREOS (USA 219) 04 Mar 09:35:51 09:40:05 36° 299° (WNW) 09:44:20 437.305
UWE-3 04 Mar 09:42:49 09:46:52 51° 99° (E) 09:50:57 435.000/436.395/437.385
GOMX 1 04 Mar 09:54:00 09:57:15 20° 293° (WNW) 10:00:19 467.674
ISS 04 Mar 09:54:19 09:56:47 20° 341° (NNW) 09:59:15 145.825
SO-50 04 Mar 09:54:21 09:59:20 82° 56° (NE) 10:04:15 436.795
NANOSAT C BR1 04 Mar 09:56:40 10:00:53 60° 75° (ENE) 10:05:07 145.865
BRITE-PL 04 Mar 09:58:54 10:01:10 13° 297° (WNW) 10:03:11 437.365/2234.400
AAUSAT CUBESAT 2 04 Mar 10:01:15 10:04:50 27° 290° (WNW) 10:08:21 437.432
COMPASS 1 04 Mar 10:05:28 10:08:46 22° 291° (WNW) 10:11:57 437.405
Oscar 11 04 Mar 10:05:45 10:09:58 52° 286° (WNW) 10:14:11 145.826/435.025
CINEMA 3 04 Mar 10:15:21 10:19:01 30° 290° (WNW) 10:22:37 145.822/145.860
DOVE 4 04 Mar 10:21:11 10:23:44 15° 295° (WNW) 10:26:06 437.250
CUBEBUG 2 04 Mar 10:24:06 10:28:04 43° 287° (WNW) 10:32:00 437.445
50 SAT 04 Mar 10:24:14 10:28:01 42° 99° (E) 10:31:48 437.505
GONETS M04 04 Mar 10:28:46 10:35:40 26° 277° (W) 10:42:16
QB50P1 04 Mar 10:30:01 10:34:13 56° 259° (W) 10:38:27 145.935-145.965
BUGSAT 1 04 Mar 10:31:06 10:35:22 74° 258° (WSW) 10:39:39 437.445
UNISAT 6 04 Mar 10:32:06 10:36:00 30° 264° (W) 10:39:48 437.425
DX 1 04 Mar 10:32:58 10:37:17 59° 286° (WNW) 10:41:33 434.975-435.025
RS-15 04 Mar 10:34:16 10:41:54 19° 258° (WSW) 10:48:52 29.354- 29.394
QB50P2 04 Mar 10:34:34 10:38:44 48° 261° (W) 10:42:54 145.880/145.840
DANDE 04 Mar 10:39:05 10:41:40 48° 78° (ENE) 10:44:15 436.750
CUBEBUG 1 04 Mar 10:41:59 10:45:49 29° 95° (E) 10:49:41 437.445
AISAT 04 Mar 10:44:10 10:48:38 75° 102° (ESE) 10:53:02 437.250
HUMSAT D 04 Mar 10:45:21 10:49:27 71° 284° (WNW) 10:53:33 437.325/437.525
DUCHIFAT 1 04 Mar 10:48:22 10:52:19 35° 263° (W) 10:56:14 145.980
VELOX 1 04 Mar 10:52:50 10:57:19 90° 312° (NW) 11:01:44 145.980
FUNcube-1 04 Mar 10:54:29 10:58:09 30° 289° (WNW) 11:01:45 145.935
ZACube-1 04 Mar 10:56:27 11:00:03 28° 290° (WNW) 11:03:35 437.345
TIGRISAT 04 Mar 10:57:29 11:00:27 17° 268° (W) 11:03:14 435.000
CUSAT 1 04 Mar 10:58:29 11:00:58 41° 263° (W) 11:03:34 437.405
Oscar 19 04 Mar 10:59:08 10:59:42 10° 59° (ENE) 11:00:34 437.125/150
DELFI C3 04 Mar 10:59:20 11:02:00 17° 293° (WNW) 11:04:32 145.870
UKube-1 04 Mar 11:00:39 11:04:31 31° 290° (WNW) 11:08:18 .
TISAT 1 04 Mar 11:06:49 11:08:04 11° 88° (E) 11:09:34 437.305
SPROUT 04 Mar 11:08:25 11:10:36 14° 90° (E) 11:12:59 437.525
POPSAT HIP 1 04 Mar 11:11:10 11:14:27 20° 267° (W) 11:17:36 437.405
POLYITAN 1 04 Mar 11:11:39 11:14:52 20° 267° (W) 11:17:58 437.675
ANTELSAT 04 Mar 11:13:43 11:15:16 11° 271° (W) 11:16:34 437.575/2403.000
ESTCUBE 1 04 Mar 11:14:58 11:19:34 76° 103° (ESE) 11:24:06 437.505/2401.250
UWE-3 04 Mar 11:20:53 11:23:03 14° 294° (WNW) 11:25:04 435.000/436.395/437.385
HO-68 04 Mar 11:25:30 11:27:55 12° 309° (NW) 11:29:56 435.675
ISS 04 Mar 11:32:45 11:34:09 12° 1° (N) 11:35:33 145.825
NANOSAT C BR1 04 Mar 11:35:41 11:37:14 11° 272° (W) 11:38:31 145.865
SO-50 04 Mar 11:37:17 11:39:19 12° 252° (WSW) 11:41:04 436.795
50 SAT 04 Mar 12:00:25 12:02:42 15° 293° (WNW) 12:04:51 437.505
CUBEBUG 1 04 Mar 12:18:28 12:22:07 25° 291° (WNW) 12:25:39 437.445
Gurwin Techsat 1B 04 Mar 12:20:51 12:24:01 17° 63° (ENE) 12:27:23 435.225
AISAT 04 Mar 12:23:16 12:24:42 11° 298° (WNW) 12:25:54 437.250
Oscar 19 04 Mar 12:33:11 12:38:20 80° 74° (ENE) 12:43:29 437.125/150
ITAMSAT 1 04 Mar 12:36:23 12:40:49 30° 67° (ENE) 12:45:23 435.822/435.867
TISAT 1 04 Mar 12:40:11 12:44:22 58° 285° (WNW) 12:48:28 437.305
SPROUT 04 Mar 12:42:54 12:47:04 49° 287° (WNW) 12:51:11 437.525
ESTCUBE 1 04 Mar 12:54:14 12:55:53 12° 297° (WNW) 12:57:17 437.505/2401.250
ISS 04 Mar 13:08:58 13:11:30 21° 20° (NNE) 13:14:02 145.825
